This demonstration page uses our WeatherBlox Daily Observations layout. Learn more.

Left ArrowRight Arrow

39.01783, -85.05884

Hourly Observations for October 23, 2021

Temp ( °F °C ) Dew Point ( °F °C ) Humidity (%) Winds ( mph kmh ) Pressure ( in mb ) Visibility ( mi km ) Precip ( " mm )
12:25 am 00:25 Cloudy with Mist and Fog 51 10.6 48 8.9 89 89 SW 6 9 30.02 1017 3 4 0.00 0.00
12:29 am 00:29 Cloudy 51 10.6 48 8.9 89 89 SW 6 9 30.01 1016 7 11 0.00 0.00
12:52 am 00:52 Cloudy 51 10.6 48 8.9 89 89 W 9 15 30.00 1016 7 11 0.00 0.00
1:52 am 01:52 Cloudy 51 10.6 48 8.9 89 89 SW 6 9 29.98 1015 7 11 N/A
2:03 am 02:03 Cloudy 51 10.6 48 8.9 89 89 SW 6 9 30.01 1016 7 11 N/A
2:52 am 02:52 Cloudy 51 10.6 47 8.3 86 86 WSW 6 9 30.00 1016 8 13 N/A
3:16 am 03:16 Cloudy 51 10.6 47 8.3 86 86 WSW 7 11 30.02 1017 8 13 N/A
3:52 am 03:52 Cloudy 50 10 47 8.3 89 89 W 8 13 30.01 1016 8 13 N/A
4:52 am 04:52 Mostly Cloudy 49 9.4 46 7.8 90 90 WSW 6 9 30.01 1016 8 13 N/A
4:59 am 04:59 Partly Cloudy 49 9.4 46 7.8 90 90 WSW 5 7 30.03 1017 8 13 N/A
5:52 am 05:52 Partly Cloudy 48 8.9 45 7.2 89 89 WSW 6 9 30.03 1017 8 13 N/A
6:08 am 06:08 Mostly Cloudy 49 9.4 46 7.8 90 90 NW 8 13 30.05 1018 8 13 N/A
6:52 am 06:52 Partly Cloudy 47 8.3 44 6.7 90 90 SW 3 6 30.04 1017 8 13 N/A
7:41 am 07:41 Cloudy with Mist and Fog 47 8.3 45 7.2 93 93 SW 7 11 30.07 1018 5 8 N/A
7:52 am 07:52 Cloudy with Light Rain 47 8.3 45 7.2 93 93 SSW 5 7 30.04 1017 6 10 0.00 0.00
8:28 am 08:28 Cloudy with Mist and Fog 47 8.3 45 7.2 93 93 SW 7 11 30.08 1019 1 2 0.00 0.00
8:52 am 08:52 Mostly Cloudy with Mist and Fog 48 8.9 45 7.2 89 89 SW 5 7 30.06 1018 5 8 0.00 0.00
9:52 am 09:52 Partly Cloudy 50 10 46 7.8 86 86 SW 5 7 30.07 1018 7 11 N/A
10:52 am 10:52 Partly Cloudy 52 11.1 44 6.7 75 75 W 6 9 30.08 1019 9 14 N/A
11:52 am 11:52 Partly Cloudy 54 12.2 43 6.1 67 67 SW 5 7 30.07 1018 10 16 N/A
12:52 pm 12:52 Partly Cloudy 57 13.9 44 6.7 62 62 VRB 3 6 30.06 1018 10 16 N/A
1:52 pm 13:52 Mostly Cloudy 58 14.4 43 6.1 58 58 WSW 10 17 30.03 1017 10 16 N/A
2:52 pm 14:52 Cloudy 57 13.9 43 6.1 60 60 SSW 6 9 30.02 1017 10 16 N/A
3:52 pm 15:52 Cloudy 57 13.9 43 6.1 60 60 S 7 11 30.01 1016 10 16 N/A
4:52 pm 16:52 Cloudy 58 14.4 43 6.1 58 58 SSW 3 6 30.01 1016 10 16 N/A
5:52 pm 17:52 Cloudy 58 14.4 45 7.2 62 62 S 3 6 30.00 1016 10 16 N/A
6:52 pm 18:52 Cloudy 56 13.3 45 7.2 67 67 N N/A 30.00 1016 10 16 N/A
7:52 pm 19:52 Cloudy 56 13.3 46 7.8 70 70 SSE 3 6 30.01 1016 10 16 N/A
8:52 pm 20:52 Cloudy with Light Rain 55 12.8 47 8.3 74 74 S 6 9 30.01 1016 8 13 0.01 0.25
9:52 pm 21:52 Cloudy with Light Rain 53 11.7 50 10 89 89 N N/A 30.01 1016 6 10 0.03 0.76
10:52 pm 22:52 Cloudy 54 12.2 50 10 87 87 E 3 6 30.02 1017 9 14 0.00 0.00
10:59 pm 22:59 Cloudy 54 12.2 50 10 87 87 E 5 7 30.03 1017 9 14 N/A
11:52 pm 23:52 Cloudy with Mist and Fog 54 12.2 51 10.6 90 90 N N/A 30.02 1017 3 5 0.00 0.00

Powered by AerisWeather